Location: Bytom
(50.3475°N, 18.9244°E)
Time: 01:09:42
(UTC+01:00)

ISS - Pass Details

Date: 01 February 2019
Orbit: 403 x 411 km, 51.6° (Epoch: 19 February)

Event Time Altitude Azimuth Distance (km) Brightness Sun altitude
Rises 17:19:48 0° 265° (W) 2,332 2.0 -7.2°
Reaches altitude 10° 17:21:53 10° 268° (W) 1,473 0.5 -7.5°
Maximum altitude 17:25:11 72° 352° (N) 435 -3.7 -8.0°
Enters shadow 17:28:15 12° 78° (ENE) 1,380 -1.8 -8.5°
